sat.trackr.live / text

‹ back to catalog

STARLINK-4299

NORAD 53172 · 2022-083AS

PAYLOAD ACTIVE UNKNOWN

§ Identity

Operator
Country
US
Launch date
2022-07-17
Launch site
AFETR
Launch vehicle
Mass (kg)
RCS (m²)

Purposes: comms

External: N2YO · Heavens-Above · Gunter

§ Orbital elements

Epoch: 2026-05-24T11:45:04.546944Z

Period
95.44 min
Inclination
53.2148°
Eccentricity
0.0000914
Mean motion
15.08839870 rev/d
Perigee alt
539.1 km
Apogee alt
540.4 km
Semi-major
6,917.9 km
B*
2.1851e-5
RAAN
178.7529°
Arg perigee
77.5158°
Mean anomaly
282.5937°
Rev number
21,286

§ Raw data

STARLINK-42991 53172U 22083AS  26144.48963596  .00000060  00000+0  21851-4 0  99962 53172  53.2148 178.7529 0000914  77.5158 282.5937 15.08839870212863

JSON: /api/v1/satellites/53172 · /tle

For live sub-satellite position, see the globe view (requires WebGL).

§ Visibility from observer

Set your observer location to see the next 7 days of passes ≥ 10°. The values pass through the URL so the page stays shareable.

No JS? Fill the form by hand. The geolocation button needs JavaScript.